Time,TemperatureF,DewpointF,PressureIn,WindDirection,WindDirectionDegrees,WindSpeedMPH,WindSpeedGustMPH,Humidity,HourlyPrecipIn,Conditions,Clouds,dailyrainin,SolarRadiationWatts/m^2,SoftwareType,DateUTC
2013-06-13 05:03:00,79.3,76.0,30.02,ENE,71,3.0,10.0,90,0.00,,,0.00,0,weatherlink.com 1.10,2013-06-13 09:03:00,
2013-06-13 05:12:00,79.4,76.0,30.02,East,82,5.0,9.0,90,0.00,,,0.00,0,weatherlink.com 1.10,2013-06-13 09:12:00,
2013-06-13 05:27:00,79.1,76.0,30.01,ENE,70,7.0,11.0,90,0.00,,,0.00,0,weatherlink.com 1.10,2013-06-13 09:27:00,
2013-06-13 05:42:00,78.9,76.0,30.01,ENE,65,5.0,8.0,91,0.00,,,0.00,0,weatherlink.com 1.10,2013-06-13 09:42:00,
2013-06-13 05:57:00,78.9,76.0,30.02,ENE,67,9.0,10.0,91,0.00,,,0.00,9,weatherlink.com 1.10,2013-06-13 09:57:00,
2013-06-13 06:12:00,78.8,76.0,30.01,ENE,69,4.0,11.0,90,0.00,,,0.00,26,weatherlink.com 1.10,2013-06-13 10:12:00,
2013-06-13 06:27:00,78.9,76.0,30.02,ENE,77,3.0,9.0,90,0.00,,,0.00,58,weatherlink.com 1.10,2013-06-13 10:27:00,
2013-06-13 06:42:00,79.1,76.0,30.02,ENE,71,4.0,8.0,90,0.00,,,0.00,102,weatherlink.com 1.10,2013-06-13 10:42:00,
2013-06-13 06:57:00,79.6,76.0,30.03,East,87,5.0,9.0,89,0.00,,,0.00,144,weatherlink.com 1.10,2013-06-13 10:57:00,
2013-06-13 07:13:00,80.3,76.0,30.03,East,98,2.0,10.0,87,0.00,,,0.00,199,weatherlink.com 1.10,2013-06-13 11:13:00,
2013-06-13 07:28:00,81.1,77.0,30.03,East,96,3.0,11.0,86,0.00,,,0.00,250,weatherlink.com 1.10,2013-06-13 11:28:00,
2013-06-13 07:43:00,81.9,77.0,30.03,ESE,115,7.0,10.0,84,0.00,,,0.00,315,weatherlink.com 1.10,2013-06-13 11:43:00,
2013-06-13 07:58:00,82.6,77.0,30.03,East,98,1.0,8.0,83,0.01,,,0.01,357,weatherlink.com 1.10,2013-06-13 11:58:00,
2013-06-13 08:13:00,83.0,77.0,30.04,NE,52,3.0,9.0,83,0.01,,,0.01,429,weatherlink.com 1.10,2013-06-13 12:13:00,
2013-06-13 08:28:00,83.6,77.0,30.04,ENE,69,3.0,13.0,81,0.01,,,0.01,468,weatherlink.com 1.10,2013-06-13 12:28:00,
2013-06-13 08:43:00,84.2,78.0,30.04,ENE,78,8.0,12.0,81,0.01,,,0.01,527,weatherlink.com 1.10,2013-06-13 12:43:00,
2013-06-13 08:58:00,84.8,78.0,30.04,NE,55,9.0,14.0,79,0.00,,,0.01,584,weatherlink.com 1.10,2013-06-13 12:58:00,
2013-06-13 09:13:00,85.0,77.0,30.04,East,80,9.0,14.0,78,0.00,,,0.01,628,weatherlink.com 1.10,2013-06-13 13:13:00,
2013-06-13 09:28:00,85.3,77.0,30.04,ENE,63,7.0,14.0,77,0.00,,,0.01,677,weatherlink.com 1.10,2013-06-13 13:28:00,
2013-06-13 09:43:00,85.7,78.0,30.05,ENE,60,3.0,15.0,78,0.00,,,0.01,703,weatherlink.com 1.10,2013-06-13 13:43:00,
2013-06-13 09:58:00,84.8,78.0,30.05,NE,53,5.0,19.0,79,0.00,,,0.01,322,weatherlink.com 1.10,2013-06-13 13:58:00,
2013-06-13 10:14:00,85.7,78.0,30.05,ENE,63,5.0,17.0,78,0.00,,,0.01,798,weatherlink.com 1.10,2013-06-13 14:14:00,
2013-06-13 10:29:00,85.6,78.0,30.05,NE,46,8.0,17.0,78,0.00,,,0.01,241,weatherlink.com 1.10,2013-06-13 14:29:00,
2013-06-13 10:44:00,83.7,78.0,30.05,NE,40,5.0,13.0,83,0.00,,,0.01,888,weatherlink.com 1.10,2013-06-13 14:44:00,
2013-06-13 10:59:00,85.2,78.0,30.05,ENE,64,10.0,17.0,78,0.00,,,0.01,441,weatherlink.com 1.10,2013-06-13 14:59:00,
2013-06-13 11:14:00,85.2,78.0,30.05,NE,47,8.0,17.0,79,0.00,,,0.01,865,weatherlink.com 1.10,2013-06-13 15:14:00,
2013-06-13 11:29:00,86.1,78.0,30.05,East,86,7.0,18.0,77,0.00,,,0.01,886,weatherlink.com 1.10,2013-06-13 15:29:00,
2013-06-13 11:44:00,86.5,79.0,30.05,ENE,57,12.0,16.0,77,0.00,,,0.01,895,weatherlink.com 1.10,2013-06-13 15:44:00,
2013-06-13 11:59:00,86.6,79.0,30.04,NE,46,11.0,16.0,77,0.00,,,0.01,868,weatherlink.com 1.10,2013-06-13 15:59:00,
2013-06-13 12:14:00,86.6,79.0,30.04,NNE,24,6.0,17.0,77,0.00,,,0.01,898,weatherlink.com 1.10,2013-06-13 16:14:00,
2013-06-13 12:29:00,85.9,78.0,30.04,ENE,77,16.0,18.0,77,0.00,,,0.01,925,weatherlink.com 1.10,2013-06-13 16:29:00,
2013-06-13 12:44:00,85.9,78.0,30.03,NE,46,8.0,21.0,78,0.00,,,0.01,856,weatherlink.com 1.10,2013-06-13 16:44:00,
2013-06-13 12:59:00,86.3,78.0,30.03,ENE,71,4.0,18.0,77,0.00,,,0.01,895,weatherlink.com 1.10,2013-06-13 16:59:00,
2013-06-13 13:14:00,86.6,79.0,30.03,ENE,76,8.0,13.0,78,0.00,,,0.01,812,weatherlink.com 1.10,2013-06-13 17:14:00,
2013-06-13 13:29:00,85.9,78.0,30.02,NE,49,13.0,17.0,77,0.00,,,0.01,675,weatherlink.com 1.10,2013-06-13 17:29:00,
2013-06-13 13:44:00,86.3,79.0,30.02,NE,55,9.0,23.0,78,0.00,,,0.01,817,weatherlink.com 1.10,2013-06-13 17:44:00,
2013-06-13 13:59:00,86.0,78.0,30.01,ENE,72,13.0,19.0,78,0.00,,,0.01,780,weatherlink.com 1.10,2013-06-13 17:59:00,
2013-06-13 14:14:00,86.5,79.0,30.01,ENE,76,11.0,19.0,77,0.00,,,0.01,817,weatherlink.com 1.10,2013-06-13 18:14:00,
2013-06-13 14:29:00,86.1,79.0,30.00,ENE,74,9.0,21.0,78,0.00,,,0.01,807,weatherlink.com 1.10,2013-06-13 18:29:00,
2013-06-13 14:44:00,86.2,78.0,30.00,East,87,11.0,18.0,77,0.00,,,0.01,756,weatherlink.com 1.10,2013-06-13 18:44:00,
2013-06-13 14:59:00,85.9,78.0,30.00,NE,51,7.0,20.0,78,0.00,,,0.01,719,weatherlink.com 1.10,2013-06-13 18:59:00,
2013-06-13 15:14:00,85.8,78.0,29.99,NNE,31,12.0,18.0,78,0.00,,,0.01,682,weatherlink.com 1.10,2013-06-13 19:14:00,
2013-06-13 15:29:00,85.4,78.0,29.98,East,81,7.0,21.0,79,0.00,,,0.01,624,weatherlink.com 1.10,2013-06-13 19:29:00,
2013-06-13 15:44:00,85.6,78.0,29.98,ENE,73,7.0,16.0,79,0.00,,,0.01,585,weatherlink.com 1.10,2013-06-13 19:44:00,
2013-06-13 15:59:00,85.3,79.0,29.98,ENE,60,9.0,17.0,80,0.00,,,0.01,439,weatherlink.com 1.10,2013-06-13 19:59:00,
2013-06-13 16:14:00,85.0,78.0,29.98,East,96,6.0,21.0,80,0.00,,,0.01,485,weatherlink.com 1.10,2013-06-13 20:14:00,
2013-06-13 16:29:00,84.7,78.0,29.97,NE,55,10.0,20.0,80,0.00,,,0.01,418,weatherlink.com 1.10,2013-06-13 20:29:00,
2013-06-13 16:44:00,84.3,78.0,29.97,NE,55,10.0,19.0,81,0.00,,,0.01,352,weatherlink.com 1.10,2013-06-13 20:44:00,
2013-06-13 16:59:00,83.5,78.0,29.97,ENE,61,9.0,17.0,83,0.00,,,0.01,151,weatherlink.com 1.10,2013-06-13 20:59:00,
2013-06-13 17:14:00,83.2,78.0,29.97,ENE,63,9.0,15.0,84,0.00,,,0.01,111,weatherlink.com 1.10,2013-06-13 21:14:00,
2013-06-13 17:29:00,83.0,78.0,29.97,ENE,76,5.0,21.0,85,0.00,,,0.01,220,weatherlink.com 1.10,2013-06-13 21:29:00,
2013-06-13 17:44:00,83.1,78.0,29.97,ENE,62,7.0,24.0,84,0.00,,,0.01,192,weatherlink.com 1.10,2013-06-13 21:44:00,
2013-06-13 17:59:00,83.0,78.0,29.97,NE,53,7.0,18.0,85,0.00,,,0.01,97,weatherlink.com 1.10,2013-06-13 21:59:00,
2013-06-13 18:15:00,82.5,78.0,29.98,ENE,69,8.0,17.0,86,0.00,,,0.01,81,weatherlink.com 1.10,2013-06-13 22:15:00,
2013-06-13 18:45:00,81.8,78.0,29.98,NE,44,10.0,22.0,87,0.00,,,0.01,14,weatherlink.com 1.10,2013-06-13 22:45:00,
2013-06-13 19:00:00,81.5,78.0,29.98,East,90,8.0,15.0,88,0.00,,,0.01,0,weatherlink.com 1.10,2013-06-13 23:00:00,
2013-06-13 19:15:00,81.4,78.0,29.98,ESE,103,13.0,15.0,89,0.00,,,0.01,0,weatherlink.com 1.10,2013-06-13 23:15:00,
2013-06-13 19:30:00,81.4,78.0,29.99,ENE,57,8.0,18.0,89,0.00,,,0.01,0,weatherlink.com 1.10,2013-06-13 23:30:00,
2013-06-13 19:45:00,81.4,78.0,29.99,East,84,14.0,21.0,88,0.00,,,0.01,0,weatherlink.com 1.10,2013-06-13 23:45:00,
2013-06-13 20:00:00,81.2,77.0,30.00,ENE,59,12.0,18.0,88,0.00,,,0.01,0,weatherlink.com 1.10,2013-06-14 00:00:00,
2013-06-13 20:15:00,81.3,78.0,30.00,ENE,78,8.0,12.0,89,0.00,,,0.01,0,weatherlink.com 1.10,2013-06-14 00:15:00,
2013-06-13 20:30:00,81.1,78.0,30.00,East,97,5.0,13.0,89,0.00,,,0.01,0,weatherlink.com 1.10,2013-06-14 00:30:00,
2013-06-13 20:45:00,81.1,78.0,30.01,ENE,57,8.0,14.0,89,0.00,,,0.01,0,weatherlink.com 1.10,2013-06-14 00:45:00,
2013-06-13 21:00:00,81.1,78.0,30.01,East,86,6.0,12.0,89,0.00,,,0.01,0,weatherlink.com 1.10,2013-06-14 01:00:00,
2013-06-13 21:15:00,81.2,78.0,30.01,East,82,5.0,9.0,90,0.00,,,0.01,0,weatherlink.com 1.10,2013-06-14 01:15:00,
2013-06-13 21:30:00,81.1,78.0,30.01,East,84,5.0,7.0,90,0.00,,,0.01,0,weatherlink.com 1.10,2013-06-14 01:30:00,
2013-06-13 21:45:00,80.6,77.0,30.01,ENE,71,9.0,16.0,89,0.00,,,0.01,0,weatherlink.com 1.10,2013-06-14 01:45:00,
2013-06-13 22:00:00,80.1,77.0,30.01,ENE,69,5.0,14.0,89,0.00,,,0.01,0,weatherlink.com 1.10,2013-06-14 02:00:00,
2013-06-13 22:15:00,80.4,77.0,30.02,East,89,9.0,13.0,89,0.00,,,0.01,0,weatherlink.com 1.10,2013-06-14 02:15:00,
2013-06-13 22:30:00,80.4,77.0,30.02,ESE,109,5.0,12.0,88,0.00,,,0.01,0,weatherlink.com 1.10,2013-06-14 02:30:00,
2013-06-13 22:45:00,80.4,76.0,30.02,East,90,6.0,13.0,87,0.00,,,0.01,0,weatherlink.com 1.10,2013-06-14 02:45:00,
2013-06-13 23:00:00,80.4,76.0,30.02,ENE,76,4.0,10.0,87,0.00,,,0.01,0,weatherlink.com 1.10,2013-06-14 03:00:00,
2013-06-13 23:15:00,80.4,77.0,30.02,ENE,77,7.0,15.0,88,0.00,,,0.01,0,weatherlink.com 1.10,2013-06-14 03:15:00,
2013-06-13 23:30:00,80.3,77.0,30.02,ENE,71,8.0,15.0,88,0.00,,,0.01,0,weatherlink.com 1.10,2013-06-14 03:30:00,
2013-06-13 23:45:00,80.2,76.0,30.01,East,96,8.0,14.0,88,0.00,,,0.01,0,weatherlink.com 1.10,2013-06-14 03:45:00,